Content
SEND FEEDBACK

Daily
Averages
Monthly
Summary
India

TRIVANDRUM, INDIA


Home > Asia > India
Elevation: 205 feet     Latitude: 08 29N     Longitude: 076 57E

WEATHER
 
SELECT A DAY
Number of Records: 112,541;   Date Range: 7/1/96 - 8/10/14
 
SHARE

PRINT THIS DATA

[ ← Previous Day ]
WEATHER ALMANAC - AUGUST 1, 2013
[ Next Day → ]
[ °C ]   °F
Weather ElementAverageHighLow
Temperature80.6 °F87.8 °F (11:10 am) (3:40 am)
Dewpoint74.3 °F80.6 °F (1:10 pm) (7:00 pm)
Humidity81 %94 % (11:10 pm)70 % (11:10 am)
Barometer29.75 in29.80 in (11:10 am)29.71 in (3:10 pm)
Wind Speed9.5 mph15 mph (12:10 pm)
Wind Gust20.7 mph (9:40 pm)
Weather ElementAverage
Visibility2.7 mi
Wind DirectionNNW (323.4 °)

Weather ElementTotal
Precipitation---
Heating Degree Days21.1 (Base 65)
Averaged from 29 records on August 1, 2013
WEATHER CONDITIONS BREAKOUT
WIND DIRECTION BREAKOUT
WEATHER BY HOUR - AUGUST 1, 2013
[ °C ]   °F
Local TimeTemperatureDewpointHumidityBarometerVisibilityWind DirectionWind SpeedGust SpeedPrecipitationEventsConditions
2:10 AM78.8 °F73.4 °F83 %29.74 in1.9 miNNW (340°)8.1 mphHaze
3:40 AM0.0 °F0.0 °F29.74 in1.9 miNNW (330°)6.9 mphHaze
4:10 AM80.6 °F75.2 °F84 %29.74 in1.9 miNNW (340°)9.2 mphHaze
5:10 AM80.6 °F75.2 °F84 %29.74 in1.9 miNNW (330°)9.2 mphHaze
5:40 AM80.6 °F75.2 °F84 %29.77 in1.9 miNNW (340°)6.9 mphHaze
6:10 AM80.6 °F75.2 °F84 %29.77 in1.9 miNNW (340°)5.8 mphHaze
7:10 AM80.6 °F75.2 °F84 %29.77 in1.9 miNNW (330°)6.9 mphHaze
8:10 AM82.4 °F75.2 °F79 %29.77 in2.5 miNW (310°)5.8 mphHaze
11:10 AM87.8 °F77.0 °F70 %29.80 inNNW (340°)13.8 mphScattered Clouds
12:10 PM87.8 °F77.0 °F70 %29.77 in3.7 miNNW (330°)15.0 mphScattered Clouds
1:10 PM87.8 °F80.6 °F79 %29.77 in3.7 miNW (310°)10.4 mphPartly Cloudy
1:40 PM87.8 °F80.6 °F79 %29.74 in3.7 miNW (320°)10.4 mphPartly Cloudy
2:10 PM87.8 °F80.6 °F79 %29.74 in3.7 miNNW (330°)13.8 mphPartly Cloudy
2:40 PM87.8 °F80.6 °F79 %29.74 in3.7 miNNW (330°)11.5 mphPartly Cloudy
3:10 PM87.8 °F80.6 °F79 %29.71 in3.7 miNW (310°)11.5 mphPartly Cloudy
3:40 PM87.8 °F80.6 °F79 %29.71 in3.7 miNW (320°)11.5 mphPartly Cloudy
4:10 PM87.8 °F80.6 °F79 %29.71 in3.7 miNNW (330°)11.5 mphPartly Cloudy
4:40 PM87.8 °F80.6 °F79 %29.71 in3.7 miNNW (330°)11.5 mphScattered Clouds
6:10 PM84.2 °F75.2 °F74 %29.71 in3.1 miNNW (330°)10.4 mphHaze
6:40 PM84.2 °F75.2 °F74 %29.74 in3.1 miNNW (330°)9.2 mphHaze
7:10 PM84.2 °F75.2 °F74 %29.74 in2.5 miNNW (340°)6.9 mphHaze
7:40 PM84.2 °F77.0 °F79 %29.74 in2.5 miNNW (330°)6.9 mphHaze
8:10 PM84.2 °F77.0 °F79 %29.77 in2.5 miNNW (340°)6.9 mphHaze
8:40 PM78.8 °F75.2 °F89 %29.77 in1.9 miNW (310°)11.5 mphHaze
9:10 PM80.6 °F75.2 °F84 %29.77 in1.9 miNW (310°)6.9 mphHaze
9:40 PM80.6 °F75.2 °F84 %29.80 in1.9 miWNW (290°)9.2 mph20.7 mphRainLight Rain
10:10 PM78.8 °F75.2 °F89 %29.80 in1.9 miWest (280°)11.5 mphRainLight Rain
11:10 PM77.0 °F75.2 °F94 %29.80 in1.9 miWNW (300°)9.2 mphLight Drizzle
11:40 PM77.0 °F75.2 °F94 %29.80 in1.9 miNW (310°)6.9 mphHaze
Hourly data recorded from VOTV, located miles away from Trivandrum, India







STORIES FROM OUR PARTNERS